COSMOS 2251 DEB, 33913

Orbit data source: Space-Track

COSMOS 2251 DEB, 33913 is space debris in LEO originally from a launch on Wed, 16 Jun 1993 UTC launched from the Plesetsk Missile And Space Complex (PKMTR). The debris from Iridium 33, an American commercial communications satellite, has been tracked extensively since its accidental collision with the defunct Russian satellite Cosmos 2251 in 2009. This event, occurring at high speed in low Earth orbit (LEO), generated thousands of pieces of space debris, significantly increasing the risk of further collisions. The Iridium 33 debris cloud has impacted space traffic management and orbital debris mitigation strategies, making it a subject of ongoing study in space situational awareness.

Loading next visibility...
Identifier
33913, 1993-036DS
Orbit
LEO
Country
Flag of CISCIS
Related business
Manufacturer
Unknown
Mission
Spacecraft
Bus & Motor
Unknown
Mass
Unknown
Launch date (UTC)
1993-06-16 (33 years ago)
Launch vehicle
Unknown
Launch site
Plesetsk Missile And Space Complex (PKMTR)
Object type
Payload
Rocket body
Debris
Shape & HBR
Unknown shape, 0.1 m
Radar Cross Section
Medium (>0.1 m² and <1 m²)

Expand to show TLE details & history
Last TLE update: 1 day ago

TLE from 1 day ago
0 COSMOS 2251 DEB
1 33913U 93036DS  26237.50990602  .00001388  00000-0  36543-3 0  9995
2 33913  74.0320  64.0392 0046815 103.8698 287.0119 14.49368435921625
Epoch: 2026-08-25T12:14Z
TLE epoch observation values (Epoch: 2026-08-25T12:14:15.880Z)
Latitude
29.13567°
Longitude
-84.17512°
Altitude
721.435 km
Speed
7.503 km/s
True Right ascension
04h 52m 40s
True Declination
28° 59' 20"
Sunlit
Object was in daylight at epoch
Visualization orbit readout
Latitude
Unknown
Longitude
Unknown
Altitude
Unknown
Speed
Unknown
Apparent Right ascension
Unknown
Apparent Declination
Unknown
Sunlit
N/A
Visualization observer readout
Local Sidereal Time
03:20:46
Azimuth
Unknown
Elevation
Unknown
Doppler factor
Unknown
Orbital elements
Apogee altitude
758.576 km
Perigee altitude
692.067 km
Semi-major axis
7,103.459 km
Eccentricity
0.00468
Inclination
74.032°
RAAN
64.0392°
Arg. of periapsis
103.8698°
True anomaly
286.49804°
Mean anomaly
287.0119°
Eccentric anomaly
286.75506°
Mean motion
3.62525 °/min
Orbital period
99.3 mins
BSTAR
0.00036543
Loading maneuver chart data...
Computing Atmospheric mass density...

Documentation

Showing up to 5 results
|